Location: Boitzum
(52.1496°N, 9.6943°E)
Time: 00:44:21
(UTC+00:00)

Okean 3 Rocket - Pass Details

Date: 13 January 2026
Orbit: 610 x 637 km, 82.5° (Epoch: 18 February)

Event Time Altitude Azimuth Distance (km) Brightness Sun altitude
Rises 05:24:09 0° 204° (SSW) 2,872 6.9 -17.7°
Reaches altitude 10° 05:26:24 10° 210° (SSW) 1,975 6.0 -17.3°
Maximum altitude 05:30:39 50° 286° (WNW) 799 3.7 -16.7°
Drops below altitude 10° 05:34:59 10° 2° (N) 2,006 6.0 -16.0°
Sets 05:37:18 0° 8° (N) 2,923 6.9 -15.7°
